Wind_Speed
21 24 26 27 28 28 29 30 30 32 33 34 35 35 36 36 36 36 35 34 34 35 36 37 37 37 37 39 39 39 37 35 33 33 33 34 35 37 38 38 36 34 30 28 27 26 25 25 25 23 17 14 13 14 15 17 19 22 26 28 30 32 33 34 34 35 39 43 46 47 47 48 49 49 48 47 46 46 45 45 45 44 43 42 42 41
22 24 25 26 26 27 27 29 30 30 31 32 33 33 34 36 36 36 35 34 34 35 36 36 36 36 37 39 40 40 37 35 34 33 33 34 35 36 38 38 37 36 33 30 27 25 25 27 27 25 21 18 16 15 15 15 17 19 23 25 27 29 31 33 34 35 37 41 45 47 47 48 48 49 48 47 47 47 46 46 46 45 44 44 42 42
22 24 25 26 25 24 25 28 30 30 29 30 31 31 33 34 34 34 34 34 35 36 35 35 35 36 37 40 41 40 38 35 34 33 33 34 35 36 37 38 38 37 35 32 29 26 24 25 27 28 26 24 22 19 16 14 13 15 19 23 25 27 28 30 31 33 35 39 43 46 47 48 48 48 47 47 47 47 47 46 46 46 45 44 43 43
22 22 24 25 24 23 23 26 28 29 28 28 29 30 31 31 32 32 32 33 35 36 36 35 34 35 37 40 41 40 38 35 34 33 33 34 35 36 37 38 39 38 36 34 31 28 25 24 24 26 27 27 26 23 19 14 11 12 14 18 22 26 27 28 29 30 32 35 40 45 47 47 47 47 47 46 47 47 47 47 47 46 46 45 44 44
21 21 22 23 22 22 23 24 25 26 27 28 28 29 30 30 30 30 32 33 34 35 35 35 34 35 37 39 41 40 37 35 33 33 33 34 35 36 38 39 39 39 37 35 33 30 28 25 23 23 24 26 27 25 22 16 12 11 11 13 17 22 26 28 29 29 29 32 36 40 44 46 47 46 46 46 46 47 48 48 47 47 46 45 45 45
21 20 21 21 20 20 21 22 23 25 26 27 28 29 29 29 29 30 31 33 34 34 34 34 34 35 37 39 40 39 36 34 32 32 33 34 35 37 38 40 40 40 38 36 34 32 30 28 25 23 22 23 25 26 24 20 17 15 12 12 13 16 21 26 29 30 30 31 33 36 40 43 45 46 46 46 46 47 48 48 47 47 47 47 46 46
21 21 21 20 20 19 20 20 21 23 24 26 27 28 28 28 28 29 30 32 32 33 34 35 36 37 38 39 40 38 35 33 32 32 33 35 36 38 39 40 41 41 39 36 34 32 31 30 28 25 23 22 22 24 25 24 21 20 19 16 13 13 15 20 26 31 33 33 33 34 36 39 42 45 46 46 46 47 48 48 48 48 48 48 48 47
20 21 21 20 19 20 20 20 20 21 23 25 26 27 28 28 29 30 31 32 32 32 33 36 38 39 39 40 40 37 34 32 31 32 34 35 37 39 40 41 42 42 40 37 34 32 31 31 30 29 26 23 22 21 23 24 24 24 25 23 20 16 14 15 19 25 31 34 35 34 35 37 39 42 44 45 46 47 48 49 49 49 50 50 49 48
19 20 20 19 19 19 21 20 21 22 23 23 24 25 26 27 29 30 31 31 31 31 32 35 38 41 42 42 40 36 33 30 29 31 33 35 38 40 42 43 43 42 41 38 35 32 30 30 30 30 29 27 24 22 22 22 23 24 25 26 26 23 19 16 16 18 23 30 34 36 36 37 38 40 42 44 46 47 48 49 50 50 51 51 50 49
17 18 19 19 18 18 19 20 22 23 23 23 22 22 22 24 27 29 31 31 30 31 31 33 35 38 41 42 40 36 32 30 30 31 33 35 38 40 42 43 43 43 41 39 36 33 30 29 29 30 31 30 28 25 24 23 23 24 25 26 26 27 25 22 19 18 18 22 28 34 37 39 40 40 41 43 45 47 48 48 48 49 50 52 51 50
16 17 17 18 18 19 18 19 21 22 23 23 23 21 20 21 23 26 28 29 30 31 32 32 32 33 36 39 39 35 31 30 31 33 35 37 39 41 43 43 43 43 41 39 36 33 31 29 29 29 30 32 31 30 27 26 25 25 25 26 26 27 27 27 25 22 19 18 21 26 33 38 41 42 42 43 44 46 47 47 47 47 49 51 51 51
15 16 16 17 18 19 20 21 21 22 23 23 22 22 22 22 22 23 25 27 29 30 31 32 32 32 32 33 33 32 31 31 33 36 38 39 41 42 43 44 44 43 42 40 37 34 32 30 29 29 30 31 32 32 31 29 28 27 28 28 28 28 28 28 28 27 24 21 20 20 25 32 39 44 44 44 44 46 47 48 48 48 49 50 51 51
15 15 15 16 17 18 19 20 21 22 22 21 20 21 22 23 24 23 23 25 26 28 29 30 31 32 31 29 27 27 29 32 35 37 39 39 39 39 40 41 42 42 41 39 37 35 33 31 30 29 29 31 32 33 33 31 30 29 30 30 30 30 30 29 29 28 27 26 23 21 21 24 32 40 44 45 45 45 46 48 49 50 50 50 51 51
15 15 15 16 16 17 18 19 19 20 20 20 20 21 22 23 24 24 24 25 26 27 28 29 29 29 29 26 23 24 27 32 36 38 39 39 37 37 37 38 39 39 38 37 36 35 33 32 31 30 29 30 31 32 33 32 32 31 31 31 32 31 31 30 29 29 28 28 27 25 23 21 24 31 39 44 46 46 46 47 49 51 52 52 51 50
14 15 15 15 15 16 17 18 18 18 19 20 21 22 23 24 24 24 24 25 26 27 28 29 29 28 25 22 21 22 26 32 35 37 38 39 38 36 35 35 36 37 35 34 33 33 33 32 31 30 30 30 30 31 31 31 31 31 31 32 32 31 31 31 30 30 29 29 29 28 26 24 22 24 30 38 44 47 48 48 49 50 52 52 51 50
14 14 14 15 15 16 17 17 17 19 20 21 21 22 23 23 23 23 23 24 25 26 25 26 27 27 25 23 21 22 26 31 34 34 36 38 39 38 34 33 34 34 33 31 31 32 32 32 32 31 31 31 31 30 29 30 30 30 31 31 31 31 30 30 30 30 30 30 30 29 29 28 26 23 24 29 36 43 48 50 50 51 52 52 51 49
14 14 14 15 16 17 17 17 18 19 20 20 21 21 21 22 23 23 23 23 23 23 22 22 21 20 22 25 24 23 25 30 32 34 34 35 37 38 34 31 31 32 31 30 29 29 30 32 33 34 34 33 32 30 29 29 29 29 30 30 30 30 30 29 29 29 30 31 31 31 30 30 29 27 24 24 28 35 43 48 51 52 52 53 52 51
15 15 15 15 16 17 18 18 18 18 19 19 20 21 22 22 23 23 22 22 22 21 21 21 20 18 18 21 24 25 27 29 30 31 32 33 35 36 34 31 30 30 29 28 28 28 28 30 33 35 36 35 34 32 30 29 29 29 29 28 28 29 29 29 29 29 29 30 31 32 32 31 31 30 28 25 25 28 35 43 48 52 53 53 53 52
17 16 16 16 17 18 18 18 17 18 18 19 20 21 22 23 23 23 22 21 21 21 21 21 21 21 21 23 26 29 29 28 29 30 30 30 32 34 33 30 29 29 29 28 27 27 28 30 33 35 36 36 35 33 32 31 30 30 29 27 27 27 27 28 28 28 29 30 31 32 32 32 32 32 31 29 26 25 29 36 43 49 52 53 53 52
18 18 18 18 18 18 18 18 18 18 18 20 21 22 22 22 22 22 21 22 22 22 22 22 22 23 24 26 29 31 30 29 28 28 28 28 30 31 30 28 28 28 29 29 28 28 28 29 32 34 35 35 34 34 34 33 32 30 27 26 25 25 25 25 26 27 28 29 31 32 32 33 33 32 32 31 29 26 25 29 37 44 50 54 55 54
20 21 21 20 19 18 18 19 19 20 21 23 23 23 22 22 21 21 21 21 22 23 23 22 23 24 25 27 29 31 32 29 27 26 27 27 27 27 26 25 26 28 30 30 30 29 28 29 30 31 32 33 33 34 35 35 33 29 26 24 24 23 23 24 24 25 27 29 30 31 32 33 33 32 32 32 31 30 27 26 31 38 45 51 54 56
22 23 23 22 21 21 21 23 25 25 24 24 23 23 22 21 21 21 22 22 22 23 23 24 24 26 27 28 30 31 31 27 25 25 24 25 26 26 24 24 25 27 29 30 31 31 30 30 29 29 29 30 32 35 36 35 32 28 24 23 23 23 23 23 23 23 25 26 28 30 31 32 32 32 32 31 32 31 30 27 27 32 39 46 52 55
24 25 25 25 25 25 25 26 26 26 25 25 24 24 23 23 23 23 23 23 23 23 24 25 26 26 26 27 29 31 29 26 24 23 22 21 24 26 25 25 26 27 28 30 31 31 31 30 29 28 28 29 32 35 36 34 30 26 23 23 23 23 23 23 22 22 23 23 25 26 28 29 30 31 31 31 31 31 31 30 27 28 33 40 47 52
25 26 26 26 26 26 26 26 26 26 26 25 25 26 26 26 25 25 25 25 25 25 24 25 24 24 24 26 28 28 27 24 22 20 20 20 24 27 26 26 27 28 29 29 29 29 30 30 29 28 27 29 32 33 33 30 27 24 23 23 24 24 24 24 23 23 22 22 23 23 24 26 27 29 29 30 30 30 31 31 29 27 28 33 40 47
24 25 26 26 26 26 27 27 27 26 26 26 26 27 27 27 27 26 25 25 24 24 24 23 22 22 23 24 25 25 25 23 21 19 20 21 25 28 27 26 26 27 28 29 28 28 29 29 29 28 28 29 30 29 27 25 23 23 23 23 24 24 25 25 26 25 25 24 23 23 23 24 25 26 27 27 28 29 30 31 31 29 27 28 32 39
24 25 25 26 27 27 28 28 28 27 27 27 27 27 27 27 27 26 25 24 23 24 24 22 21 21 22 23 23 23 24 23 21 20 20 21 23 26 27 25 24 25 28 28 28 27 28 29 29 29 29 29 27 25 23 21 21 22 23 23 24 25 27 28 29 30 30 29 28 26 25 24 24 24 24 25 26 27 28 30 31 30 29 27 28 32
23 24 25 26 27 27 28 28 29 29 28 28 28 28 27 28 27 27 25 24 23 23 23 21 19 19 21 21 21 22 23 23 22 21 21 22 23 24 24 23 23 24 27 29 29 28 28 28 29 29 28 27 24 22 21 20 21 22 23 25 26 27 29 30 32 33 33 33 33 31 29 27 25 25 25 25 25 26 27 29 30 30 30 28 27 28
23 23 24 25 25 25 26 26 27 27 27 27 27 27 27 27 26 25 24 24 23 22 22 21 19 17 18 19 20 22 23 23 23 22 21 21 20 20 22 22 23 24 27 29 31 30 28 27 26 26 25 23 21 21 21 21 22 24 26 28 29 30 31 31 32 33 33 33 33 32 30 28 27 26 26 26 26 26 27 28 29 30 30 29 28 27
23 24 24 25 25 25 25 25 26 26 26 27 27 27 27 27 27 26 26 25 23 22 22 23 22 20 19 20 22 23 23 22 22 21 19 18 18 19 21 23 23 24 26 28 30 30 27 24 22 21 21 21 21 22 23 24 26 29 30 31 32 32 31 31 31 31 31 31 31 30 29 28 27 26 26 26 26 27 27 27 28 29 30 30 29 28
25 25 26 27 27 27 28 28 28 28 28 28 28 27 27 27 28 28 28 26 24 23 23 24 24 23 21 20 19 18 18 19 18 16 17 16 17 19 22 23 24 24 23 22 21 21 22 23 21 19 20 21 23 25 26 27 28 29 30 31 32 32 32 31 31 30 30 30 29 28 28 27 27 26 25 25 25 26 26 26 27 28 29 29 29 28
27 27 28 29 29 29 30 30 30 30 29 29 28 27 27 27 28 28 28 27 25 24 25 25 25 24 22 18 12 8 11 18 18 16 17 17 18 20 21 22 23 23 21 18 13 10 14 20 22 21 20 23 25 26 26 26 25 26 27 29 31 32 33 32 32 31 30 29 28 28 27 27 27 27 26 25 25 24 25 25 25 26 27 28 28 28
27 27 28 28 28 29 29 28 28 28 28 28 28 28 27 27 28 28 27 27 26 25 25 25 25 25 24 21 15 12 16 21 22 20 19 18 19 21 20 20 21 21 20 18 16 12 9 15 22 26 24 24 25 25 24 23 23 24 25 27 30 31 32 32 32 31 30 29 28 28 27 28 28 28 28 27 26 25 24 24 24 24 25 26 27 27
26 26 26 27 27 27 27 27 27 28 28 28 29 29 29 28 28 28 28 28 27 27 26 25 25 24 24 24 23 23 24 25 25 24 22 20 19 19 19 20 21 21 22 21 20 18 15 18 24 28 28 26 24 23 23 23 23 23 24 26 28 30 31 31 31 31 30 29 29 28 28 29 29 30 30 29 28 26 24 23 22 22 23 24 25 26
26 26 26 26 27 27 27 27 28 28 29 29 29 30 30 29 29 29 29 29 28 28 28 27 25 24 24 24 24 25 26 27 27 26 24 22 19 18 20 20 21 21 22 22 21 21 21 23 24 25 26 27 26 24 22 22 22 23 23 24 26 28 30 30 31 31 31 30 30 30 30 30 30 31 31 31 29 27 25 23 23 22 22 23 24 25
26 26 26 26 26 26 27 27 28 29 29 29 29 29 30 30 30 30 30 29 29 28 28 28 28 27 26 25 25 25 26 28 28 28 25 23 21 20 20 21 20 20 21 21 21 20 20 23 24 24 24 27 27 26 23 21 21 22 23 24 25 27 29 30 31 31 31 31 31 31 31 31 31 32 32 31 29 27 25 24 24 23 23 23 23 24
25 26 26 26 26 25 26 26 26 27 27 28 28 28 28 28 28 28 28 28 27 27 27 28 28 29 29 29 28 28 29 31 31 29 27 26 24 22 21 21 21 21 20 21 21 20 19 22 24 25 25 25 26 26 25 22 21 22 23 24 25 27 29 30 30 31 31 31 31 31 31 32 32 32 31 30 29 28 27 26 25 24 23 23 23 24
24 25 25 24 24 24 24 24 24 24 25 25 25 26 26 26 26 26 26 26 27 27 28 28 28 28 29 30 31 32 33 34 34 33 31 29 28 26 24 23 23 22 21 21 22 23 22 22 23 25 24 23 23 24 25 25 24 24 23 23 25 27 29 30 30 30 30 30 31 31 31 30 30 30 30 30 29 29 28 27 26 24 23 23 23 24
22 23 23 23 23 24 24 24 24 24 25 26 26 26 26 27 27 27 28 28 29 30 30 31 31 31 30 30 31 32 34 34 35 36 35 34 32 30 28 27 26 25 24 23 22 23 24 23 21 20 21 23 25 25 26 26 26 25 25 24 24 25 26 27 28 28 28 29 29 30 30 30 30 30 30 30 30 29 29 28 26 25 23 23 22 23
23 24 24 24 24 24 25 25 25 26 26 27 28 28 27 27 28 28 29 29 30 31 31 32 33 33 33 32 32 32 32 33 33 34 35 35 34 33 31 30 29 28 26 25 23 23 23 23 22 20 20 22 25 27 27 26 26 26 26 26 26 25 24 24 25 26 27 28 29 30 31 31 31 31 31 30 30 29 28 27 26 25 24 24 24 24
23 24 24 24 24 24 24 25 26 26 27 27 26 25 24 24 24 25 26 27 28 29 30 31 32 32 33 33 32 31 30 30 30 30 31 33 33 33 32 30 28 26 25 24 24 24 24 23 24 24 24 23 24 25 26 28 28 27 27 26 25 25 23 23 25 27 28 28 29 30 31 31 31 30 30 29 28 27 26 26 25 25 24 24 24 24
22 23 24 24 24 25 25 26 26 26 25 24 23 22 22 22 23 24 25 26 27 28 29 29 30 31 31 32 31 31 30 29 28 28 28 29 30 30 30 30 29 28 26 27 27 27 26 25 25 26 27 26 25 25 26 27 28 27 26 25 26 26 26 26 26 26 26 27 27 28 28 29 29 29 29 28 28 27 26 26 26 25 25 24 23 22
24 24 25 25 25 25 25 24 24 23 22 22 22 23 23 23 24 25 26 27 28 28 29 28 28 28 28 29 30 30 29 29 29 29 30 30 31 32 32 33 34 34 32 31 30 29 28 27 27 27 27 26 24 25 26 27 27 26 25 25 26 27 27 27 24 22 23 25 26 27 27 28 29 30 30 30 30 29 28 28 27 27 26 25 24 23
24 24 24 24 23 23 22 22 21 21 21 22 24 25 25 25 26 26 27 27 27 27 27 26 25 25 25 26 27 27 27 28 29 30 31 32 32 33 34 35 36 36 34 32 30 29 28 27 27 27 27 25 24 24 26 27 27 26 26 26 25 24 23 24 23 23 24 26 27 27 27 28 29 30 30 31 31 31 31 30 29 28 27 26 26 26
22 22 23 23 23 23 22 22 22 23 24 25 26 26 26 26 26 26 26 26 25 25 24 24 23 24 24 25 25 25 26 27 27 28 29 29 29 29 30 31 32 32 32 30 29 27 26 25 25 26 26 24 24 24 26 26 26 26 27 26 25 24 24 25 26 27 27 28 27 26 27 28 28 29 31 32 33 32 32 31 31 30 29 28 28 27
22 22 22 23 23 23 24 24 24 24 25 25 25 26 26 25 25 25 24 24 25 25 24 23 22 22 22 23 23 23 25 26 27 27 27 28 27 27 27 27 27 27 28 28 28 27 26 24 25 26 26 26 26 26 26 26 26 27 27 27 26 26 28 28 28 27 27 27 27 28 28 28 28 29 30 31 31 31 31 31 30 30 30 29 29 28
23 23 24 24 24 25 25 25 25 25 25 26 26 26 26 25 25 25 26 26 26 26 25 24 22 20 20 21 21 22 23 25 27 27 27 27 27 27 26 26 26 27 27 28 29 30 30 29 28 28 28 26 26 27 27 26 25 26 27 27 26 26 27 27 27 27 26 26 28 28 28 27 27 27 27 28 28 29 29 30 30 30 30 29 28 28
24 24 25 25 25 25 25 25 25 25 26 26 26 26 26 26 26 26 26 26 25 24 23 21 19 17 18 20 21 22 23 26 27 28 27 27 27 26 26 25 26 26 28 29 30 32 33 33 32 30 27 25 24 24 25 25 26 26 27 27 26 25 26 27 27 27 27 27 28 29 28 27 26 26 26 26 26 27 28 28 29 29 28 28 28 28
23 24 24 24 25 25 25 25 24 24 25 25 25 26 26 26 26 25 24 22 20 18 17 17 17 19 21 23 25 25 26 26 26 26 26 26 25 24 23 23 24 25 26 27 29 31 32 33 33 33 31 28 25 25 26 28 28 27 27 26 25 25 26 27 27 27 27 28 29 29 28 27 26 25 24 24 25 27 27 27 28 28 28 28 28 27
25 25 24 24 23 23 24 24 24 24 23 24 23 24 24 23 22 20 19 18 18 19 19 20 21 22 23 24 24 24 23 22 21 21 21 21 21 21 21 22 22 22 23 24 25 27 29 31 32 33 33 32 30 28 28 29 29 28 27 26 25 25 26 27 27 27 27 28 29 29 28 27 27 25 24 24 25 26 26 26 27 28 28 28 28 28
25 25 25 24 24 24 24 23 23 23 22 22 22 22 22 22 21 21 21 21 22 22 22 23 23 22 22 23 22 21 20 19 19 20 21 23 24 24 24 23 23 22 22 22 22 22 23 25 27 28 30 31 31 30 30 29 29 28 27 26 25 25 25 26 27 27 27 27 28 28 28 28 27 26 25 25 25 26 25 26 27 28 28 28 27 27
25 25 25 24 24 25 25 24 24 23 23 23 23 23 23 23 23 24 24 23 23 23 23 23 23 22 22 23 23 23 23 23 23 25 26 26 26 26 26 25 24 22 21 21 20 19 17 17 18 20 24 25 27 28 29 28 26 25 25 24 24 23 23 25 27 27 27 27 27 27 27 27 26 26 25 24 23 23 24 25 27 27 27 27 26 26
Wind_Direction
322 325 329 333 334 334 335 340 342 342 341 342 343 343 343 343 344 345 347 348 348 348 348 349 350 350 351 352 354 356 357 358 358 359 359 360 1 3 5 5 4 1 357 356 2 9 11 10 7 2 349 331 312 300 296 291 281 269 261 256 253 251 247 242 236 230 224 221 220 219 214 208 204 201 200 200 201 203 205 207 207 208 208 208 208 208
325 327 330 333 334 333 333 338 342 342 340 340 340 341 341 341 341 343 345 345 345 345 346 347 348 348 348 350 352 354 355 356 356 356 356 356 358 0 3 4 5 3 0 356 355 360 8 14 15 13 8 1 347 327 311 303 292 278 266 258 253 250 246 242 238 234 227 222 220 219 216 211 205 202 201 201 202 204 206 207 208 208 208 208 208 208
326 328 329 332 333 332 331 335 339 341 340 339 338 338 338 339 339 340 341 342 342 343 344 346 346 346 346 347 350 352 353 354 354 353 352 352 354 356 359 2 3 4 2 359 355 352 355 4 12 17 18 17 9 356 339 323 309 294 277 266 259 252 246 240 238 235 230 224 221 219 217 212 208 204 203 203 204 205 207 208 208 208 208 208 208 208
325 327 327 330 331 330 330 332 336 338 339 338 337 337 337 338 338 338 339 339 339 340 342 344 345 344 344 346 348 350 352 352 352 350 349 348 350 352 355 358 0 2 2 1 358 353 349 351 359 9 15 17 14 8 0 344 326 313 298 281 269 260 252 246 241 238 233 227 222 219 217 214 210 207 206 206 207 208 208 209 209 209 209 209 209 209
322 324 326 328 328 327 328 331 334 336 337 337 336 336 337 337 337 337 337 337 338 339 341 342 342 342 343 344 347 349 351 351 349 347 345 345 346 347 350 353 356 359 1 1 1 358 353 348 348 354 3 8 10 10 8 359 345 333 321 304 285 270 259 253 248 244 239 233 226 221 218 215 213 211 210 209 209 210 210 210 210 210 211 211 210 209
319 322 324 325 324 324 326 330 334 336 337 336 336 336 336 336 336 336 336 337 338 338 339 339 340 340 341 343 346 348 349 349 346 343 342 341 342 344 346 348 351 354 357 360 1 0 358 352 346 343 346 354 1 6 9 7 2 354 346 333 314 292 274 261 253 249 245 239 233 226 221 218 216 215 214 213 213 212 213 213 212 212 212 212 211 209
317 320 323 324 324 324 326 329 333 337 338 336 335 335 335 336 336 336 336 336 337 337 337 337 337 338 339 342 345 347 348 347 343 340 338 338 339 341 342 344 347 350 354 356 359 0 360 356 350 343 338 340 348 357 3 6 6 5 5 359 346 324 301 278 262 252 247 243 239 233 227 222 218 217 217 217 216 216 216 216 215 215 214 212 211 209
315 319 323 325 326 326 327 329 333 337 339 337 336 335 335 335 335 335 335 336 337 338 337 336 336 336 337 340 344 347 347 344 340 337 336 336 336 338 339 341 343 346 350 353 356 358 359 358 355 349 342 336 336 342 351 357 1 4 8 8 4 353 333 309 285 266 253 246 242 238 233 227 221 218 219 220 220 220 221 220 219 218 216 214 211 210
314 318 322 324 326 327 328 328 331 335 338 337 336 335 335 335 335 335 335 335 336 337 337 336 335 335 335 338 342 345 345 341 336 334 333 333 334 335 337 339 341 344 346 349 352 355 357 357 356 353 349 341 334 331 335 342 349 354 358 2 4 3 356 341 320 295 272 256 247 242 238 233 227 223 221 222 223 224 224 221 219 217 216 214 212 210
315 317 319 322 324 326 327 326 328 331 335 336 336 335 336 337 337 336 335 334 334 336 336 336 335 334 334 336 340 342 341 337 332 330 331 331 332 334 335 337 339 342 344 347 349 352 354 355 355 354 352 348 341 333 328 329 334 339 343 347 352 357 359 356 347 330 307 281 263 251 243 238 233 229 225 224 225 226 225 221 217 215 214 213 212 211
316 318 319 320 322 324 325 325 326 329 333 335 336 336 338 340 340 338 334 332 332 333 334 333 333 332 332 334 337 339 338 333 329 328 329 330 332 333 335 336 338 340 342 344 346 349 352 353 353 353 352 351 348 342 333 327 325 326 329 332 336 342 349 354 355 350 338 317 293 271 256 245 240 236 232 229 227 227 226 223 219 215 214 213 212 212
314 316 318 319 320 323 324 325 327 330 333 336 338 338 338 340 341 338 333 330 329 330 331 330 329 329 330 333 335 335 333 330 328 328 329 330 332 334 335 336 337 339 341 342 344 346 349 351 351 351 350 350 350 348 343 335 327 322 321 322 324 327 332 340 347 351 351 343 327 303 279 260 249 242 238 235 232 230 227 225 222 218 215 214 213 213
312 314 315 316 318 321 324 326 329 331 334 337 337 336 333 334 336 335 332 327 326 327 327 327 326 326 328 332 333 332 330 328 327 328 329 330 332 334 336 336 336 338 339 341 342 344 346 348 349 348 348 347 348 348 347 343 335 327 321 318 318 319 321 325 332 341 348 349 345 332 310 284 264 251 244 240 237 234 231 228 224 220 217 215 214 213
311 313 314 315 316 318 322 325 327 328 329 331 331 329 328 329 331 332 331 327 325 326 326 325 323 323 326 330 332 331 328 327 327 328 328 329 330 332 334 334 334 335 338 339 340 341 344 345 345 345 345 344 345 345 345 344 340 334 327 321 318 317 316 317 321 327 335 342 345 344 335 315 289 268 254 246 241 238 236 232 228 223 219 216 214 213
308 311 311 311 311 314 317 320 321 321 322 323 324 325 326 328 330 332 331 328 326 326 327 325 323 322 323 326 330 330 328 329 329 329 327 326 326 329 332 333 333 333 336 337 337 339 341 342 341 341 341 341 341 341 341 341 340 337 332 327 322 318 316 315 315 317 322 328 335 340 341 335 318 294 271 256 247 242 239 236 233 228 224 221 218 216
303 305 305 305 306 308 311 314 315 315 316 318 321 323 326 327 329 329 329 327 326 327 328 328 326 323 321 322 326 329 330 331 330 328 325 323 322 325 329 331 331 331 332 334 335 337 338 338 337 336 336 337 337 337 337 336 336 335 334 330 326 322 319 317 315 314 315 318 323 330 335 337 333 319 296 274 258 249 243 240 237 234 230 227 224 221
297 298 299 300 301 302 305 308 310 311 312 315 318 320 322 323 324 325 325 325 325 326 327 327 325 322 319 319 321 326 331 332 330 326 322 319 319 322 327 330 329 327 329 330 332 333 335 334 333 332 332 333 333 334 333 332 331 331 331 330 328 326 323 321 319 318 316 315 317 320 325 330 333 330 319 298 276 261 251 245 241 237 235 232 229 226
291 292 294 295 296 298 302 305 307 308 310 312 315 317 317 318 320 321 321 322 323 323 323 322 320 316 315 314 315 320 327 330 328 324 319 316 316 319 325 327 327 325 324 325 327 329 330 330 329 329 329 329 330 331 331 330 330 329 328 328 328 327 326 324 323 321 319 317 315 315 317 321 326 329 328 317 298 277 262 252 246 241 238 235 232 228
286 288 289 290 292 295 298 301 303 305 307 309 311 313 314 314 315 316 317 318 318 318 318 316 314 311 309 307 309 314 321 326 325 321 316 312 313 316 322 326 325 323 321 321 323 325 326 326 326 326 327 327 328 329 330 330 330 329 327 326 326 327 327 327 325 323 321 319 317 315 314 315 319 323 327 325 315 296 275 262 253 246 242 238 235 231
283 284 285 287 290 293 295 296 298 300 302 305 307 308 308 310 311 311 312 313 313 313 312 310 308 307 306 305 307 311 317 322 322 318 312 309 309 313 319 324 324 320 318 318 320 322 323 323 323 324 325 326 327 328 329 331 332 331 329 327 325 325 326 327 326 325 324 322 320 317 315 313 313 316 321 325 323 313 293 273 260 252 247 242 239 235
279 281 283 286 288 289 290 292 294 297 299 301 302 302 303 305 305 306 307 308 309 309 309 306 304 303 305 304 305 308 313 318 318 314 310 308 306 309 316 322 322 319 316 316 318 320 321 321 321 322 324 325 326 327 328 331 332 333 331 328 326 324 323 323 324 325 325 324 323 320 317 314 312 312 315 320 323 320 309 289 270 258 251 247 243 239
275 278 282 285 284 283 283 288 293 296 298 298 297 297 297 299 300 300 302 303 304 303 303 300 299 300 301 301 301 304 310 313 313 309 308 306 304 306 314 320 320 317 314 314 316 319 320 320 320 320 321 323 324 326 328 330 332 333 331 330 328 324 321 319 320 322 324 325 324 322 320 316 313 311 312 316 320 321 317 305 286 267 256 250 245 242
275 277 281 283 283 283 284 287 292 295 297 295 293 292 292 293 293 294 296 297 297 297 296 295 295 296 297 298 300 303 307 310 311 309 305 302 301 305 312 318 318 315 311 311 314 317 319 319 319 319 319 321 323 325 327 330 332 332 331 331 329 326 321 318 317 318 319 321 321 321 320 317 314 312 311 313 316 318 318 313 301 282 266 255 248 244
279 280 281 282 283 284 285 287 290 292 293 293 292 292 292 291 290 290 292 293 293 292 291 292 293 294 295 298 300 302 305 309 311 309 304 300 299 303 309 315 315 312 308 310 313 316 317 317 317 317 317 319 323 326 328 330 331 331 330 329 327 325 322 320 319 318 317 316 316 316 316 315 314 313 311 311 312 314 315 314 308 297 280 265 254 247
284 283 283 284 284 284 285 286 287 288 289 289 290 291 291 291 291 291 291 291 291 291 291 290 290 291 294 298 300 301 303 307 309 308 304 301 300 301 305 311 312 310 308 310 313 316 316 315 315 315 316 318 322 327 330 331 330 328 326 325 323 321 319 319 319 318 317 315 313 310 310 310 311 311 310 309 309 310 312 312 310 304 293 279 265 254
285 285 285 285 285 284 284 283 283 284 284 284 285 287 288 289 290 290 289 288 289 290 291 290 288 287 291 294 296 297 301 304 306 305 304 301 300 300 303 308 311 310 309 310 313 315 314 312 312 312 314 317 322 326 329 328 325 321 319 317 315 314 314 315 316 316 317 317 315 312 308 306 305 306 306 306 306 306 307 308 308 306 301 292 279 266
286 286 286 286 286 285 284 283 282 282 282 282 282 283 285 287 288 288 285 284 286 288 289 288 286 287 289 290 291 293 298 301 302 302 301 299 297 297 301 307 311 312 311 311 311 312 311 309 309 310 313 317 321 323 322 319 316 313 312 310 308 308 309 311 312 313 314 315 316 315 312 307 303 301 301 301 301 302 303 304 304 304 303 299 292 281
288 287 287 287 287 287 286 285 284 283 282 282 282 282 283 284 284 282 281 282 284 285 284 283 284 285 287 288 289 291 294 296 297 298 300 297 293 293 300 308 313 315 314 312 311 310 308 307 307 310 313 316 318 316 313 310 309 309 309 308 307 306 306 306 307 308 309 311 313 315 314 311 306 301 299 297 297 298 298 299 299 301 302 303 301 295
288 287 286 285 285 285 285 285 285 284 283 282 282 281 280 279 277 276 277 280 281 281 280 280 280 281 283 286 288 290 291 291 293 296 299 298 294 295 302 308 312 315 316 314 313 311 308 306 308 312 313 314 313 311 308 307 308 309 311 312 311 310 309 308 308 307 307 308 310 312 314 313 310 305 299 296 294 294 294 294 295 296 299 303 306 306
291 289 287 285 284 284 284 284 284 284 283 283 282 281 278 276 273 273 274 277 277 276 276 277 278 279 281 285 289 290 289 288 290 295 299 301 300 300 305 307 309 313 317 318 316 313 309 308 309 311 313 313 311 310 309 310 311 313 315 316 316 315 314 313 312 311 310 309 309 310 311 312 312 309 305 299 295 292 292 291 291 292 295 299 305 309
293 292 290 289 287 287 286 285 285 284 283 282 281 279 277 275 273 272 273 273 272 271 272 273 275 276 276 280 283 287 286 286 287 289 295 299 297 298 303 305 306 309 313 315 316 313 309 308 308 309 312 312 311 311 311 312 313 314 315 315 314 314 313 313 312 312 311 311 309 309 309 310 311 311 309 305 300 295 291 289 289 289 291 295 301 307
291 291 290 290 290 289 288 287 286 284 282 281 280 278 277 275 274 273 272 271 270 269 269 270 271 271 270 269 267 269 277 281 283 285 290 291 291 292 297 298 300 303 306 307 304 301 303 304 305 307 309 309 309 309 310 311 311 311 311 311 311 310 311 311 311 311 310 310 309 308 307 307 308 309 309 309 307 302 298 294 291 289 289 291 296 301
289 289 288 289 288 288 287 285 284 283 282 280 279 278 277 276 274 273 272 272 271 270 269 268 267 267 267 265 265 267 271 275 278 282 284 283 284 286 290 292 294 298 301 301 298 294 291 293 299 304 306 306 306 307 307 308 308 308 309 309 309 309 310 311 310 309 309 308 307 306 305 305 305 305 307 308 309 308 305 302 298 294 290 290 292 296
287 286 286 286 286 285 284 283 283 282 281 280 279 278 277 276 275 274 273 272 271 270 269 267 265 264 265 265 266 267 269 272 275 279 280 276 275 278 284 285 288 292 297 298 297 295 292 291 295 300 303 304 304 303 304 305 306 307 308 308 307 306 307 307 307 306 306 305 305 304 303 303 302 302 303 306 308 310 309 307 303 299 294 291 290 293
285 284 284 284 284 283 283 282 281 280 280 279 278 278 277 276 276 275 274 273 273 272 271 269 266 264 262 262 264 266 269 271 275 279 278 272 269 270 276 277 280 286 291 292 294 295 294 293 294 297 300 302 302 301 301 303 305 306 306 305 304 303 303 303 303 303 303 302 302 301 300 300 300 300 302 304 307 309 310 309 306 302 296 291 288 288
282 282 282 281 280 280 279 279 279 279 279 278 278 278 278 278 278 277 277 277 276 276 275 274 272 270 266 262 261 262 266 272 276 278 275 271 268 266 267 270 275 279 282 284 287 289 291 293 295 296 297 298 300 300 301 302 304 305 304 304 304 303 302 302 302 301 301 300 299 298 298 298 298 299 301 302 304 306 307 308 307 304 299 293 286 283
278 278 278 278 278 278 278 278 279 279 280 280 281 281 281 281 281 282 282 282 283 283 283 283 283 281 278 273 269 267 269 274 277 278 276 272 269 266 264 266 271 273 273 275 280 285 288 291 294 295 295 294 294 297 300 303 305 304 303 304 304 303 302 302 302 301 300 299 298 297 297 297 297 298 299 300 301 302 303 305 306 306 304 298 289 282
276 276 277 278 278 278 278 279 279 280 281 282 282 282 282 283 283 284 285 285 286 287 288 288 289 289 288 285 281 278 278 278 279 279 278 275 271 267 264 266 268 269 268 268 272 279 284 288 291 293 293 291 291 292 296 301 303 303 302 303 302 301 300 301 302 302 301 299 298 297 296 295 295 295 296 296 298 299 300 301 303 306 307 305 298 288
275 276 277 277 277 277 277 277 278 278 279 279 279 279 280 281 281 282 282 283 284 286 287 288 289 289 289 289 288 287 284 282 280 279 278 276 272 268 265 264 265 267 267 267 270 275 280 282 283 285 287 289 290 291 294 296 298 300 302 303 302 299 298 300 301 300 298 297 295 295 294 293 293 293 293 294 295 296 296 298 300 303 306 307 305 298
274 274 275 275 275 274 274 274 274 275 275 275 275 276 278 280 282 282 283 283 284 285 285 286 287 287 287 287 287 288 287 285 282 280 278 275 272 269 266 264 265 267 270 273 275 277 277 276 276 277 279 282 286 289 292 294 295 297 301 302 300 299 299 300 299 297 296 294 293 293 293 293 293 293 292 292 292 292 292 294 296 298 301 302 302 301
274 274 274 274 273 272 271 271 271 272 273 274 277 280 283 286 288 288 288 288 288 287 288 288 288 287 287 285 284 283 283 283 283 281 279 278 276 274 273 271 272 274 276 277 277 275 273 271 272 274 277 279 282 285 288 289 291 294 296 296 295 296 298 297 295 295 295 294 294 293 293 293 293 292 291 291 290 290 290 291 292 293 295 295 294 293
273 273 273 272 270 269 269 270 271 272 274 279 283 286 288 290 291 291 291 291 290 289 289 290 291 291 291 289 285 282 280 279 279 280 279 279 280 280 279 277 276 275 274 274 272 270 268 267 269 272 275 278 281 284 285 286 288 290 290 290 293 296 297 295 293 294 294 293 292 292 291 290 290 289 290 290 289 289 289 289 289 289 289 289 288 287
267 269 270 270 270 271 271 273 274 277 280 283 285 286 287 288 289 289 289 289 289 289 289 290 290 291 290 289 287 284 282 280 279 279 279 279 278 278 277 275 273 271 269 267 267 267 266 265 265 266 271 275 278 280 281 284 286 287 287 287 290 294 294 293 295 295 293 291 289 289 288 287 287 287 287 287 287 286 286 286 285 284 284 284 284 283
267 270 272 274 276 278 279 280 281 282 284 285 285 285 286 287 287 287 287 286 286 286 286 286 286 286 286 285 285 286 286 284 283 282 280 280 280 279 278 277 276 274 270 266 264 265 267 266 265 267 272 276 276 275 276 280 282 284 285 286 286 286 285 288 293 294 292 290 288 287 285 285 285 286 286 286 285 284 284 283 283 283 282 282 282 282
271 274 276 278 279 280 280 281 282 282 283 283 283 284 284 285 284 283 282 281 281 280 279 278 279 278 278 279 281 284 286 286 285 284 282 281 280 280 280 281 282 281 278 274 270 268 268 267 269 273 276 276 272 270 271 275 279 281 282 284 285 284 282 285 288 289 287 288 287 286 285 284 285 285 284 283 283 282 282 282 282 282 282 282 282 282
275 276 277 277 277 278 278 278 279 280 280 280 280 280 281 281 280 279 277 275 274 273 273 271 268 266 268 273 278 283 285 286 285 284 283 281 279 278 278 279 280 281 280 278 276 274 270 268 269 272 274 272 268 266 268 271 275 278 280 283 284 284 284 285 285 285 285 286 286 285 285 284 283 281 278 279 280 281 281 281 280 280 280 281 281 282
274 275 275 275 276 276 276 276 277 278 278 277 277 277 277 278 277 275 271 269 267 266 267 267 266 266 270 277 282 284 284 283 282 282 281 280 280 280 279 279 279 278 277 276 275 274 271 269 267 266 265 264 264 266 267 271 273 275 278 282 284 284 283 283 284 284 285 284 284 284 284 284 281 277 275 276 278 279 279 278 278 278 278 279 280 281
272 273 272 273 273 273 273 274 274 275 275 275 276 275 275 274 271 269 267 266 267 271 276 281 283 283 283 284 283 281 278 275 275 275 276 277 280 282 283 283 281 279 277 276 275 273 271 270 268 265 261 259 261 266 271 273 273 274 276 279 281 281 281 282 283 284 284 283 282 282 282 280 278 276 276 277 277 277 276 276 276 276 277 278 279 280
271 271 271 270 270 270 270 271 272 272 272 272 273 273 273 272 270 269 270 275 280 284 287 287 287 285 283 281 280 277 274 272 273 275 278 282 286 290 291 290 288 286 283 281 278 276 274 272 269 266 262 258 257 260 265 269 270 271 273 275 276 277 279 281 282 283 283 283 282 281 280 278 275 274 275 275 275 274 274 275 276 276 276 277 278 279
268 268 268 268 268 267 268 268 269 269 269 270 270 272 273 274 274 275 277 280 281 281 279 279 278 278 278 278 278 278 279 282 286 289 290 291 293 294 293 292 291 290 288 286 282 278 276 273 270 267 265 261 257 255 257 262 267 270 272 272 273 275 277 279 281 281 281 281 282 282 281 278 276 274 272 272 272 273 273 274 274 274 275 276 277 279
265 266 266 265 264 265 266 266 267 266 267 268 270 271 273 274 274 275 276 276 275 274 273 273 272 271 271 272 273 276 278 282 286 287 288 288 289 288 288 287 286 285 284 283 282 279 277 275 274 273 270 266 262 257 254 256 262 267 270 271 273 274 276 278 280 280 280 280 281 281 280 278 275 273 270 269 270 272 272 272 272 273 274 275 277 278
Height
835 834 832 831 829 827 825 824 823 821 818 816 814 813 812 811 810 809 808 807 806 805 803 802 801 799 798 797 796 795 794 793 791 790 789 788 786 785 784 782 780 779 778 776 774 773 772 771 769 768 765 764 764 764 765 766 767 768 768 768 769 769 770 771 772 773 773 774 774 775 774 774 773 772 773 774 776 778 780 783 786 789 791 794 796 798
835 833 832 831 829 828 825 824 824 822 820 818 816 814 813 811 809 808 807 806 806 805 804 802 800 799 798 797 795 794 793 792 791 789 788 787 786 785 784 782 780 779 777 776 775 773 772 771 769 768 766 765 764 764 764 764 765 766 767 768 768 768 769 770 771 771 772 772 773 774 774 774 773 772 771 772 774 776 778 780 783 785 788 790 793 795
834 833 832 830 830 828 826 824 823 823 821 819 818 816 814 812 810 809 807 806 805 804 804 802 801 799 798 796 795 794 792 791 790 789 788 787 785 784 783 782 781 779 777 776 774 774 772 771 770 769 767 766 765 765 764 763 764 764 766 767 767 768 768 769 769 769 770 771 771 772 772 773 773 772 771 772 773 774 776 779 780 783 785 787 789 792
835 834 832 831 829 829 828 826 824 823 822 820 819 817 815 813 811 809 808 807 805 804 803 802 801 799 797 796 794 793 792 790 789 788 787 786 785 784 783 782 781 779 778 776 774 773 772 771 770 769 768 767 767 766 764 763 762 763 764 765 766 767 768 768 768 768 768 769 770 770 771 771 772 772 771 772 772 774 775 777 779 780 782 784 787 789
836 835 833 832 830 829 827 827 825 824 822 820 819 817 816 814 812 810 809 807 805 804 802 801 800 799 798 796 794 793 791 790 789 788 787 786 784 784 782 781 781 779 778 776 774 773 772 771 770 769 769 769 768 766 765 764 763 762 762 763 764 766 767 767 767 767 767 768 768 769 770 770 770 770 771 771 772 773 774 776 777 779 780 782 784 786
836 835 834 833 831 829 828 827 826 824 822 820 819 818 816 814 813 811 809 807 805 804 802 801 800 799 798 796 794 793 791 790 789 788 786 785 784 783 782 781 780 779 778 776 775 773 772 771 770 769 769 769 768 767 765 764 764 763 762 762 762 764 765 766 766 766 767 767 767 768 769 768 768 768 769 770 771 772 773 775 776 778 779 780 782 783
835 834 834 833 832 830 829 827 826 825 824 821 819 817 815 814 813 811 809 808 806 804 802 800 799 798 797 796 794 793 791 789 788 787 786 784 783 782 781 780 779 779 778 777 775 774 772 771 770 769 769 768 767 766 766 765 764 764 763 762 762 762 763 764 765 766 766 766 766 766 767 767 767 766 767 769 770 771 772 774 775 776 777 778 779 781
835 834 834 833 831 829 828 827 826 826 824 822 820 817 815 813 812 811 809 808 806 804 802 799 797 796 795 795 794 792 791 789 788 786 785 784 782 781 780 779 779 778 777 776 775 774 773 772 771 770 769 768 767 766 765 764 764 764 763 763 762 762 762 762 764 765 766 766 765 765 765 766 766 765 766 767 768 769 771 772 773 774 775 776 777 779
836 834 833 833 832 830 828 827 826 826 825 824 822 819 817 814 812 809 808 807 806 805 803 800 797 794 794 793 793 792 791 789 788 787 785 784 782 781 780 779 778 777 776 776 775 774 773 772 771 770 769 767 766 765 764 764 763 763 763 763 763 762 762 761 761 762 764 765 765 765 765 765 765 765 764 765 766 768 769 770 771 772 773 774 775 776
836 835 834 832 832 831 829 827 826 825 825 824 823 822 820 817 814 810 807 806 805 804 804 802 799 796 793 792 792 791 790 789 788 787 786 784 783 782 780 779 778 777 776 775 775 774 773 772 771 770 769 767 766 764 764 763 763 763 763 763 762 762 762 761 761 760 761 762 763 764 764 764 764 764 763 763 764 766 767 769 770 771 772 772 773 774
835 834 834 832 831 830 830 829 827 825 824 823 822 821 820 819 817 814 810 807 804 804 803 802 801 799 796 793 791 790 790 789 787 785 784 784 783 781 780 779 778 776 775 774 774 774 773 772 771 770 769 768 766 764 763 762 762 762 762 762 762 762 762 762 761 760 759 759 760 761 762 763 763 763 763 763 763 764 765 766 768 769 770 771 771 772
835 834 833 832 831 830 829 828 826 825 824 823 821 819 818 818 818 817 814 811 808 805 804 802 801 800 799 796 794 791 790 788 786 784 783 782 781 780 778 777 776 775 774 774 773 773 772 772 771 770 769 768 766 765 764 762 762 762 762 762 762 763 763 762 761 760 759 759 759 759 760 761 762 762 762 762 762 762 763 763 765 767 768 769 770 770
834 834 833 832 831 829 829 827 826 824 824 823 822 821 819 818 818 817 816 813 811 809 806 803 801 799 799 799 797 794 791 788 786 784 783 782 780 779 779 777 775 774 774 773 772 772 771 771 770 769 769 768 766 765 764 763 762 761 761 761 762 762 762 762 762 761 760 759 758 758 758 759 760 761 761 761 762 762 762 762 762 764 765 767 768 769
834 833 832 831 830 829 829 828 827 825 824 824 824 823 821 819 818 817 815 813 811 809 808 805 802 799 798 798 798 796 793 789 786 784 782 781 781 781 780 778 776 775 774 773 772 771 771 770 770 769 769 768 767 765 764 763 762 761 761 761 761 761 762 761 761 760 760 759 759 758 758 757 758 759 760 760 760 761 761 761 761 762 763 764 765 766
834 833 832 831 830 829 829 828 827 826 825 824 824 822 821 819 818 817 815 813 811 809 807 805 802 799 799 799 798 796 794 791 788 785 782 780 780 781 781 779 776 775 774 774 772 771 770 770 769 769 768 768 767 766 765 764 763 762 762 761 761 760 760 760 760 760 759 759 758 758 757 757 757 757 758 758 759 759 760 760 761 761 761 762 763 764
833 833 831 830 829 829 828 828 827 826 825 824 823 822 821 819 818 817 816 814 812 810 808 805 802 798 796 797 798 797 795 792 789 787 784 780 779 780 781 779 777 774 774 773 772 771 770 770 769 769 768 768 767 767 766 765 764 763 763 762 761 760 759 759 759 759 758 758 757 757 756 756 756 755 755 756 757 757 758 759 759 759 760 761 762 763
833 832 831 830 829 828 827 827 826 825 824 824 823 822 822 820 819 818 817 815 814 811 810 808 806 802 797 794 795 797 796 794 791 788 785 781 779 779 780 780 778 775 773 773 773 772 771 770 769 768 767 767 767 767 766 765 764 764 763 762 761 760 759 758 757 757 756 756 756 755 755 755 755 754 754 754 754 755 756 756 757 758 759 759 760 761
832 831 830 829 828 827 827 826 825 825 824 823 822 821 821 820 819 819 817 816 815 813 811 810 809 806 802 797 795 795 796 796 793 789 786 782 779 778 779 779 778 775 774 773 772 772 771 770 769 768 767 766 766 766 765 765 764 763 762 761 760 758 757 756 755 754 754 754 754 754 754 754 754 754 753 752 752 752 753 754 754 755 756 757 758 759
830 830 829 829 827 826 826 825 825 824 824 823 822 821 820 819 819 818 818 817 816 814 813 811 809 807 805 801 797 796 797 797 795 791 787 783 779 777 779 779 777 775 773 772 772 772 771 769 769 767 766 765 765 764 764 764 763 762 761 760 759 757 755 754 753 752 752 752 752 752 753 753 753 753 752 751 751 750 751 751 752 753 754 754 755 756
829 829 828 828 827 826 825 824 824 824 823 822 822 821 820 819 818 818 817 816 815 814 813 812 809 807 805 802 798 796 797 797 795 792 788 784 779 778 779 779 777 774 772 771 771 771 770 769 768 766 765 764 764 763 762 762 761 760 759 759 757 756 754 753 751 750 750 750 750 751 751 751 752 752 751 750 749 749 749 749 750 750 751 751 752 753
828 827 827 827 826 825 824 823 823 823 822 822 821 820 819 818 817 817 816 816 814 814 813 811 809 807 805 803 799 797 797 798 796 793 788 784 779 778 779 779 777 774 772 770 770 770 769 768 767 766 765 764 763 762 761 760 760 759 758 757 756 755 754 752 750 749 748 748 748 749 749 750 750 750 750 749 749 748 747 747 747 748 748 749 749 750
827 825 825 825 825 824 823 822 821 821 821 821 820 819 818 818 817 816 815 815 814 813 812 810 809 807 805 803 800 798 798 798 797 794 790 784 779 777 779 779 777 775 772 769 769 769 768 767 766 765 764 764 763 761 760 759 759 758 757 756 755 754 753 752 750 749 748 747 747 747 748 748 749 749 748 748 747 746 746 745 744 745 746 746 746 747
825 824 824 824 823 823 822 821 820 820 820 820 819 818 818 817 816 815 814 814 813 812 810 809 807 806 804 803 800 798 798 798 797 795 792 787 780 777 778 779 777 774 772 770 769 768 766 766 765 764 763 763 762 761 760 759 758 757 756 755 754 754 753 752 750 749 748 747 746 746 746 747 747 747 746 746 746 745 744 744 743 743 743 744 744 744
824 823 822 822 822 821 820 820 819 819 819 818 818 817 816 815 815 814 813 813 812 810 809 807 806 804 803 802 800 798 797 797 797 796 793 788 782 778 778 778 777 774 770 769 769 768 766 764 764 763 762 762 761 760 759 758 757 756 755 754 754 753 752 751 750 749 748 747 747 746 746 745 745 744 744 744 744 744 743 742 742 741 740 741 741 742
823 822 821 821 820 820 819 819 818 818 817 817 816 815 814 814 813 813 812 811 810 809 808 806 804 803 801 801 799 797 796 796 796 795 793 789 784 779 778 779 778 774 770 768 768 767 765 763 762 761 761 760 760 759 758 757 757 756 755 754 754 753 752 751 750 749 748 747 747 746 745 744 744 743 743 742 742 742 742 741 740 739 739 738 738 739
822 821 820 820 819 819 818 818 817 817 816 816 815 814 814 813 812 811 810 809 809 808 807 805 803 801 800 800 799 796 795 795 795 795 793 790 785 780 778 778 778 775 771 768 767 766 765 763 761 760 760 759 759 758 758 757 756 755 754 754 753 752 751 750 749 748 747 747 746 745 744 744 743 742 741 741 741 740 740 740 739 738 737 736 735 734
820 820 819 819 818 818 817 816 816 816 815 815 814 814 813 812 811 809 808 807 807 807 805 804 801 799 799 798 797 796 795 794 794 793 792 790 786 781 778 778 777 775 772 768 766 766 765 763 760 759 759 758 758 757 757 756 755 754 754 753 752 751 750 749 748 747 746 745 744 744 743 742 741 741 740 739 739 739 739 739 738 737 736 734 733 731
819 818 817 817 816 816 815 814 814 814 813 813 813 812 812 811 809 808 806 805 805 805 804 802 800 799 797 796 795 794 794 794 792 792 791 789 786 782 779 778 777 776 773 769 765 764 764 762 760 759 758 757 757 757 756 755 755 754 753 752 751 750 749 748 747 746 745 744 744 743 742 741 740 739 738 738 738 738 738 738 737 736 735 733 731 729
817 816 815 815 814 814 813 813 812 812 811 811 811 810 810 810 808 806 804 804 804 803 802 800 799 798 796 794 793 793 793 792 791 791 790 788 785 782 780 779 778 776 775 770 765 761 760 760 760 759 757 757 756 755 754 754 754 753 752 751 750 749 748 747 746 745 744 744 743 742 741 739 739 738 737 736 736 736 736 736 736 735 734 732 730 729
815 814 814 813 813 812 811 811 810 810 809 809 809 809 808 808 806 804 803 803 803 801 799 799 798 797 795 794 792 791 790 790 790 790 789 787 784 782 781 779 778 777 777 773 768 761 757 757 758 759 758 756 755 754 754 753 752 751 750 749 748 747 746 745 744 744 743 742 741 740 739 738 737 736 735 734 734 734 733 734 734 734 733 731 729 728
813 813 812 811 811 810 810 809 809 808 807 807 807 806 806 805 804 803 802 802 801 800 798 797 796 795 794 794 792 789 787 787 788 789 789 787 784 782 781 780 778 777 777 777 773 767 759 754 754 756 757 756 754 753 753 752 751 750 749 748 747 745 744 744 743 742 741 740 740 739 738 737 736 735 734 733 732 731 731 732 732 732 731 730 729 727
812 811 810 809 809 809 808 807 807 806 805 805 804 804 803 803 802 801 800 800 799 798 796 795 794 793 793 792 791 789 786 785 786 787 788 786 784 781 781 780 778 776 776 777 776 773 767 758 754 754 755 755 754 753 752 751 751 750 749 748 746 744 743 743 742 740 739 739 738 737 736 735 734 733 732 731 730 729 729 730 730 730 730 729 728 726
810 810 809 809 808 807 806 806 805 804 804 803 802 802 801 800 800 799 799 798 797 796 795 794 792 791 790 789 788 787 784 784 784 785 786 785 783 781 780 779 778 776 775 775 774 773 770 764 758 754 754 754 754 753 751 750 750 749 749 747 745 743 742 741 740 739 738 737 736 735 734 734 733 732 730 729 729 728 727 727 728 728 728 727 726 724
809 809 808 807 806 805 805 804 803 803 802 801 800 799 799 798 798 797 797 796 795 795 794 792 791 789 788 787 785 784 783 782 782 783 784 784 782 779 778 778 777 775 774 773 772 771 769 765 762 758 754 751 751 751 751 750 749 748 748 747 745 743 742 741 739 738 737 736 735 734 733 732 731 730 729 728 727 726 725 725 725 725 725 724 724 723
808 807 806 806 805 804 803 802 801 801 800 799 798 798 797 796 795 795 794 794 793 793 792 790 789 788 786 785 784 781 780 779 780 782 782 781 779 778 776 775 775 775 774 772 770 769 767 764 762 760 756 752 749 748 749 749 748 747 746 746 745 743 741 740 739 738 736 735 734 733 731 730 729 728 727 726 725 724 723 723 722 722 722 721 721 721
806 805 804 804 803 802 801 800 799 799 798 797 796 796 795 794 794 793 792 792 791 790 789 789 787 786 784 783 782 779 778 777 778 779 779 779 778 776 774 773 772 773 773 770 769 768 766 763 760 759 758 754 749 746 746 747 747 746 744 744 743 742 741 739 739 737 735 734 732 731 730 729 728 727 726 725 724 723 722 721 720 720 719 719 719 719
804 803 803 802 801 800 799 799 798 797 796 795 794 794 794 793 792 791 791 790 789 788 787 786 785 784 783 781 780 778 776 776 776 777 777 777 776 774 773 770 770 770 771 769 768 767 765 763 760 758 756 754 751 748 745 744 745 744 743 742 742 741 739 738 737 736 735 733 731 730 729 728 727 726 725 724 723 722 721 720 719 718 718 717 717 717
802 801 800 800 800 799 798 797 796 795 795 794 793 792 792 791 790 789 788 788 787 786 785 784 783 782 781 780 778 777 775 774 774 774 774 774 773 772 770 768 768 768 768 767 766 765 764 762 760 758 755 753 751 749 746 745 744 743 741 741 740 739 738 737 736 735 734 732 730 729 728 727 726 725 724 723 722 721 719 718 718 717 716 716 715 715
800 799 799 798 798 797 796 795 794 794 793 792 791 790 790 789 788 787 786 786 785 784 783 782 781 779 778 778 776 775 774 773 772 772 771 771 770 769 768 767 765 764 765 765 764 763 763 761 760 758 755 752 749 747 746 745 744 742 740 739 738 737 737 736 735 734 733 731 729 728 726 725 724 724 722 721 720 719 718 717 716 716 715 714 714 713
799 798 797 796 795 795 794 793 792 791 790 789 789 788 788 787 786 785 784 784 783 782 781 780 779 778 776 775 774 774 773 771 770 770 769 769 768 767 766 765 764 763 763 763 762 762 761 760 758 756 755 753 750 747 745 744 743 742 741 739 736 734 734 735 734 732 731 730 729 727 725 723 722 722 721 720 719 718 717 716 715 715 714 714 713 712
796 795 794 794 793 792 791 790 789 789 788 788 787 786 785 784 784 783 782 781 780 779 779 778 777 775 774 773 772 772 771 770 769 768 768 767 766 765 765 764 763 762 762 761 760 759 759 758 756 754 753 752 750 748 745 744 743 742 742 739 736 733 733 733 732 731 730 728 727 726 724 723 721 720 719 718 717 717 716 715 714 714 713 713 712 712
794 793 792 791 790 789 788 788 787 787 786 786 785 784 783 783 782 781 780 779 778 778 777 776 775 773 771 770 769 769 769 768 767 766 765 765 764 764 763 762 761 760 760 759 757 756 756 755 754 752 751 750 749 747 744 742 741 741 741 739 736 733 731 729 730 730 729 727 725 724 724 722 720 719 717 716 715 714 714 714 713 712 712 711 710 710
791 790 789 789 788 787 786 786 785 785 784 784 783 782 781 781 781 780 779 778 777 776 775 774 774 772 770 768 767 766 766 765 764 764 763 762 762 761 760 759 758 758 757 756 754 753 752 752 751 750 749 749 748 746 743 741 740 739 738 737 736 734 731 727 727 728 728 726 724 723 722 721 719 717 716 714 713 712 712 711 711 710 710 709 709 708
789 788 788 787 786 785 785 784 784 783 783 782 781 780 779 779 779 779 778 776 775 774 774 773 772 771 769 767 765 764 764 763 762 761 761 760 759 759 758 757 755 755 754 754 752 751 750 749 748 747 747 748 747 744 742 740 739 737 736 735 735 734 731 727 726 726 725 724 723 722 720 719 718 716 714 712 711 710 709 709 708 708 707 707 706 706
787 786 786 785 785 784 783 782 782 782 781 780 779 778 778 778 778 777 776 775 774 773 772 771 770 769 767 765 764 763 762 760 759 759 758 758 757 757 756 755 754 753 753 752 751 750 749 748 746 745 746 746 744 742 740 739 737 735 734 733 733 731 729 727 726 725 723 722 720 719 718 718 717 715 713 710 709 707 707 706 705 705 704 704 704 703
786 785 784 784 783 782 781 781 780 780 779 778 777 777 776 776 775 774 774 773 771 770 769 769 768 767 764 763 762 762 760 759 757 756 755 754 754 754 754 753 752 752 751 750 749 748 747 746 745 744 744 743 740 739 737 737 736 734 731 730 730 729 727 725 724 724 722 720 719 717 716 716 715 714 711 709 707 706 704 704 703 703 702 701 701 700
784 783 783 782 781 780 779 779 779 778 777 776 775 774 774 773 773 772 770 769 769 768 766 766 765 764 763 761 761 760 759 757 755 754 753 752 751 750 750 750 750 749 749 747 746 745 744 743 742 742 741 740 737 735 734 734 734 732 729 729 728 727 725 723 722 721 721 719 717 715 715 715 714 711 709 708 706 704 702 701 700 700 700 699 699 698
782 781 780 780 779 778 777 777 776 776 774 773 772 772 771 771 770 769 768 767 767 766 765 764 764 763 762 761 760 759 758 756 754 752 751 749 749 748 748 747 747 746 745 744 743 742 740 740 739 739 739 737 735 733 732 732 731 729 728 727 727 725 723 721 720 719 719 717 715 714 714 713 712 709 708 706 704 702 700 699 698 698 698 697 697 696
780 779 778 778 777 776 775 774 774 773 772 771 770 769 769 769 768 767 766 766 765 765 764 764 763 762 761 759 758 757 755 754 752 750 749 748 748 747 746 745 745 744 743 742 741 740 738 737 736 735 735 734 733 731 729 729 728 727 726 725 724 723 721 719 718 717 716 715 713 713 712 711 710 709 708 705 703 700 698 697 696 695 695 695 694 694
778 777 776 776 775 774 773 772 772 771 770 769 769 768 767 767 766 766 765 764 764 764 763 763 762 760 759 757 756 755 754 752 751 749 748 748 747 746 745 744 744 743 742 740 739 738 737 734 732 731 731 730 730 729 727 726 725 725 724 723 722 721 719 718 716 715 714 713 711 710 710 709 708 707 706 704 701 699 697 696 694 693 693 693 692 692
775 774 774 773 772 771 770 770 769 769 768 767 766 766 765 764 764 764 763 763 762 762 761 760 759 759 757 755 754 753 752 751 750 749 748 747 746 746 744 744 743 742 741 739 737 736 734 732 730 728 727 727 727 727 725 724 723 723 722 720 719 719 718 716 714 713 712 710 709 708 707 706 705 704 704 702 700 698 695 694 692 691 691 691 690 690